Probability
0 0 26 39 29 16 19 16 16 16 19 16 16 16 13 6 6 6 6 3 3 3 0 3 3 3 3 3 3 0 0 0 0 0 0 0 0 0 0 0 0 0 0
0 0 26 39 32 19 13 13 13 16 13 13 10 10 10 6 6 6 3 3 3 3 3 3 3 3 3 3 0 0 0 0 0 0 0 0 0 0 0 0 0 0 0
0 3 23 35 29 29 16 13 10 10 6 6 6 3 3 6 3 3 3 3 3 3 3 3 3 3 0 0 0 0 0 0 0 0 0 0 0 0 0 0 0 0 0
0 6 16 32 29 26 13 6 6 3 3 3 3 3 3 0 0 0 3 3 3 3 0 0 3 0 0 0 0 0 0 0 0 0 0 0 0 0 0 0 0 0 0
0 10 16 23 29 19 10 10 3 6 3 3 3 3 3 0 0 0 0 0 0 0 0 0 0 0 0 0 0 0 0 0 0 0 0 0 0 0 0 0 0 0 0
0 6 16 23 29 19 13 10 3 3 3 3 3 3 3 0 0 0 0 0 0 0 0 0 0 0 0 0 0 0 0 0 0 0 0 0 0 0 0 0 0 0 0
3 10 16 26 19 16 10 10 3 3 3 3 3 3 3 0 0 0 0 0 0 0 0 0 0 0 0 0 0 0 0 0 0 0 0 0 0 0 0 0 0 0 0
3 10 16 23 19 13 13 10 3 3 3 3 3 3 0 0 0 0 0 0 0 0 0 0 0 0 0 0 0 0 0 0 0 0 0 0 0 0 0 0 0 0 0
0 6 10 13 10 13 13 6 3 3 3 3 3 3 0 0 0 0 0 0 0 0 0 0 0 0 0 0 0 0 0 0 0 0 0 0 0 0 0 0 0 0 0
3 3 6 10 3 3 3 3 3 3 3 3 3 0 0 0 0 0 0 0 0 0 0 0 0 0 0 0 0 0 0 0 0 0 0 0 0 0 0 0 0 0 0
3 3 3 6 3 3 3 3 3 3 3 3 0 0 0 0 0 0 0 0 0 0 0 0 0 0 0 0 0 0 0 0 0 0 0 0 0 0 0 0 0 0 0
3 3 3 6 3 0 0 0 0 0 0 0 0 0 0 0 0 0 0 0 0 0 0 0 0 0 0 0 0 0 0 0 0 0 0 0 0 0 0 0 0 0 0
3 3 0 3 3 0 0 0 0 0 0 0 0 0 0 0 0 0 0 0 0 0 0 0 0 0 0 0 0 0 0 0 0 0 0 0 0 0 0 0 0 0 0
0 3 0 0 3 0 0 0 0 0 0 0 0 0 0 0 0 0 0 0 0 0 0 0 0 0 0 0 0 0 0 0 0 0 0 0 0 0 0 0 0 0 0
0 0 0 0 0 0 0 0 0 0 0 0 0 0 0 0 0 0 0 0 0 0 0 0 0 0 0 0 0 0 0 0 0 0 0 0 0 0 0 0 0 0 0
0 0 0 0 0 0 0 0 0 0 0 0 0 0 0 0 0 0 0 0 0 0 0 0 0 0 0 0 0 0 0 0 0 0 0 0 0 0 0 0 0 0 0
0 0 0 0 0 0 0 0 0 0 0 0 0 0 0 0 0 0 0 0 0 0 0 0 0 0 0 0 0 0 0 0 0 0 0 0 0 0 0 0 0 0 0
0 0 0 0 0 0 0 0 0 0 0 0 0 0 0 0 0 0 0 0 0 0 0 0 0 0 0 0 0 0 0 0 0 0 0 0 0 0 0 0 0 0 0
0 0 0 0 0 0 0 0 0 0 0 0 0 0 0 0 0 0 0 0 0 0 0 0 0 0 0 0 0 0 0 0 0 0 0 0 0 0 0 0 0 0 0
0 0 0 0 0 0 0 0 0 0 0 0 0 0 0 0 0 0 0 0 0 0 0 0 0 0 0 0 0 0 0 0 0 0 0 0 0 0 0 0 0 0 0
0 0 0 0 0 0 0 0 0 0 0 0 0 0 0 0 0 0 0 0 0 0 0 0 0 0 0 0 0 0 0 0 0 0 0 0 0 0 0 0 0 0 0
0 0 0 0 0 0 0 0 0 0 0 0 0 0 0 0 0 0 0 0 0 0 0 0 0 0 0 0 0 0 0 0 0 0 0 0 0 0 0 0 0 0 0
0 0 0 0 0 0 0 0 0 0 0 0 0 0 0 0 0 0 0 0 0 0 0 0 0 0 0 0 0 0 0 0 0 0 0 0 0 0 0 0 0 0 0
0 0 0 0 0 0 0 0 0 0 0 0 0 0 0 0 0 0 0 0 0 0 0 0 0 0 0 0 0 0 0 0 0 0 0 0 0 0 0 0 0 0 0
0 0 0 0 0 0 0 0 0 0 0 0 0 0 0 0 0 0 0 0 0 0 0 0 0 0 0 0 0 0 0 0 0 0 0 0 0 0 0 0 0 0 0
0 0 0 0 0 0 0 0 0 0 0 0 0 0 0 0 0 0 0 0 0 0 0 0 0 0 0 0 0 0 0 0 0 0 0 0 0 0 0 0 0 0 0
Height
5854 5856 5858 5860 5861 5863 5864 5866 5867 5868 5869 5870 5871 5871 5872 5872 5873 5873 5874 5874 5874 5875 5875 5875 5875 5874 5874 5873 5873 5872 5871 5870 5869 5868 5867 5865 5864 5862 5860 5858 5856 5854 5852
5850 5853 5855 5856 5858 5860 5862 5863 5865 5866 5867 5868 5869 5870 5870 5871 5871 5872 5872 5873 5873 5873 5873 5873 5873 5873 5873 5872 5871 5871 5870 5869 5868 5866 5865 5863 5862 5860 5858 5855 5853 5851 5848
5847 5849 5851 5853 5855 5857 5859 5861 5862 5864 5865 5866 5867 5868 5868 5869 5870 5870 5871 5871 5872 5872 5872 5872 5872 5872 5871 5871 5870 5869 5868 5867 5866 5865 5863 5861 5859 5857 5855 5853 5850 5848 5845
5842 5844 5847 5849 5851 5853 5855 5857 5859 5861 5862 5864 5865 5866 5866 5867 5868 5869 5869 5870 5870 5871 5871 5871 5871 5871 5870 5869 5869 5868 5867 5865 5864 5863 5861 5859 5857 5855 5853 5850 5847 5845 5842
5837 5840 5842 5845 5847 5850 5852 5854 5856 5858 5859 5861 5862 5863 5864 5865 5866 5867 5868 5868 5869 5869 5869 5869 5869 5869 5868 5868 5867 5866 5865 5864 5862 5861 5859 5857 5855 5852 5850 5847 5844 5841 5839
5832 5835 5838 5840 5843 5846 5848 5851 5853 5855 5856 5858 5859 5860 5862 5863 5864 5865 5866 5867 5867 5868 5868 5868 5868 5867 5867 5866 5865 5864 5863 5862 5860 5858 5857 5855 5852 5850 5847 5844 5841 5838 5835
5827 5830 5833 5836 5839 5842 5844 5847 5849 5851 5853 5855 5857 5858 5859 5861 5862 5863 5864 5865 5865 5866 5866 5866 5866 5865 5865 5864 5863 5862 5861 5859 5858 5856 5854 5852 5849 5847 5844 5841 5838 5835 5831
5821 5824 5828 5831 5834 5837 5840 5843 5846 5848 5850 5852 5854 5855 5857 5858 5859 5861 5861 5863 5863 5864 5864 5864 5864 5863 5863 5862 5861 5860 5858 5857 5855 5853 5851 5849 5846 5844 5841 5837 5834 5831 5828
5815 5819 5822 5826 5830 5833 5836 5839 5842 5844 5846 5848 5850 5852 5854 5855 5857 5858 5859 5860 5861 5862 5862 5862 5861 5861 5860 5860 5859 5857 5856 5854 5852 5851 5848 5846 5843 5840 5837 5834 5831 5828 5824
5809 5813 5817 5821 5825 5828 5831 5834 5838 5840 5843 5845 5847 5849 5851 5853 5854 5856 5857 5858 5859 5859 5859 5859 5859 5858 5858 5857 5856 5855 5853 5852 5850 5848 5845 5843 5840 5837 5834 5831 5827 5824 5820
5803 5808 5812 5816 5819 5823 5826 5830 5833 5836 5839 5841 5844 5846 5848 5850 5851 5853 5854 5855 5856 5856 5856 5856 5856 5856 5855 5854 5853 5852 5850 5849 5847 5845 5842 5840 5837 5834 5830 5827 5824 5820 5816
5798 5802 5806 5810 5814 5818 5822 5825 5829 5832 5835 5837 5840 5842 5844 5846 5848 5850 5851 5852 5853 5853 5853 5854 5853 5853 5852 5851 5850 5849 5847 5846 5844 5841 5839 5836 5833 5830 5827 5823 5820 5816 5812
5791 5795 5800 5804 5808 5812 5816 5820 5824 5827 5830 5833 5836 5838 5841 5843 5845 5846 5848 5849 5849 5850 5850 5850 5850 5850 5849 5848 5847 5846 5844 5842 5840 5838 5835 5832 5829 5826 5823 5819 5815 5812 5808
5784 5789 5793 5798 5802 5807 5811 5815 5819 5822 5826 5829 5832 5834 5837 5839 5841 5843 5844 5845 5846 5847 5847 5847 5847 5846 5845 5845 5844 5842 5841 5839 5836 5834 5831 5829 5825 5822 5819 5815 5811 5807 5803
5776 5782 5787 5792 5797 5801 5806 5810 5814 5817 5821 5824 5827 5830 5833 5835 5837 5839 5840 5842 5842 5843 5843 5843 5843 5843 5842 5841 5840 5838 5837 5835 5832 5830 5827 5824 5821 5818 5814 5810 5806 5802 5798
5770 5775 5780 5785 5790 5795 5800 5804 5808 5812 5816 5819 5822 5825 5828 5831 5833 5835 5836 5838 5839 5839 5840 5840 5839 5839 5838 5837 5836 5835 5833 5831 5828 5826 5823 5820 5817 5813 5809 5806 5802 5797 5793
5762 5768 5773 5779 5784 5789 5794 5798 5802 5806 5810 5814 5817 5821 5823 5826 5828 5830 5832 5833 5834 5835 5835 5835 5835 5835 5834 5833 5832 5830 5829 5826 5824 5821 5818 5815 5812 5808 5805 5801 5797 5792 5788
5755 5760 5766 5772 5777 5782 5787 5792 5796 5801 5805 5808 5812 5815 5818 5821 5824 5826 5827 5829 5830 5831 5831 5831 5831 5830 5830 5829 5828 5826 5824 5822 5819 5817 5814 5810 5807 5803 5800 5795 5791 5787 5783
5747 5753 5759 5765 5770 5776 5781 5786 5790 5795 5799 5803 5806 5810 5813 5816 5819 5821 5823 5824 5825 5826 5827 5827 5826 5826 5825 5824 5823 5821 5820 5817 5815 5812 5809 5805 5802 5798 5794 5790 5786 5781 5777
5739 5746 5752 5758 5763 5768 5774 5779 5784 5789 5793 5797 5801 5804 5807 5810 5813 5815 5817 5819 5820 5821 5822 5822 5822 5821 5820 5819 5818 5817 5815 5812 5809 5807 5803 5800 5796 5793 5789 5784 5780 5775 5770
5731 5738 5745 5751 5757 5762 5768 5774 5778 5783 5787 5791 5795 5798 5802 5805 5808 5810 5812 5814 5815 5816 5816 5817 5816 5816 5815 5814 5813 5811 5810 5807 5804 5801 5798 5794 5791 5787 5783 5778 5774 5769 5764
5724 5731 5738 5744 5750 5756 5762 5767 5771 5775 5780 5784 5788 5792 5796 5799 5802 5804 5806 5808 5809 5810 5811 5811 5811 5811 5810 5809 5808 5806 5804 5802 5799 5796 5792 5788 5785 5780 5776 5772 5767 5762 5757
5716 5724 5731 5737 5743 5749 5754 5759 5764 5769 5773 5778 5782 5786 5790 5793 5796 5798 5800 5802 5803 5805 5805 5805 5805 5805 5804 5803 5802 5800 5798 5796 5793 5790 5786 5782 5778 5774 5769 5765 5760 5754 5749
5709 5716 5723 5729 5735 5741 5746 5752 5757 5763 5768 5773 5776 5779 5783 5786 5789 5792 5794 5796 5797 5798 5799 5799 5799 5799 5798 5797 5796 5794 5792 5789 5787 5784 5780 5776 5771 5767 5762 5757 5752 5747 5742
5700 5707 5714 5721 5727 5733 5738 5744 5750 5756 5760 5764 5768 5772 5776 5779 5782 5785 5787 5789 5791 5792 5793 5793 5793 5793 5792 5791 5789 5787 5785 5783 5779 5777 5774 5769 5764 5760 5755 5750 5745 5740 5734
5691 5698 5705 5712 5719 5725 5731 5737 5743 5748 5753 5757 5761 5765 5769 5772 5775 5778 5780 5782 5784 5785 5786 5786 5786 5786 5785 5784 5783 5781 5778 5776 5773 5769 5766 5762 5758 5753 5748 5742 5737 5732 5726
Wind_Speed
23 22 20 19 18 16 15 13 12 11 10 9 8 7 6 6 5 4 3 3 3 4 5 5 6 6 7 9 9 10 11 12 13 15 16 17 18 18 20 21 21 22 23
25 24 22 21 20 18 17 15 14 12 11 10 10 9 8 7 6 5 4 4 4 4 5 5 6 7 8 9 10 11 11 13 14 15 16 17 18 19 20 21 22 23 24
26 26 25 23 22 20 19 17 16 14 13 12 11 10 9 8 7 6 5 4 4 5 5 5 6 7 8 9 10 11 12 13 14 16 17 18 19 20 21 22 23 24 24
28 28 27 25 24 23 21 19 18 16 15 13 12 12 10 9 8 6 5 5 5 5 5 5 6 7 9 10 10 11 12 13 15 17 18 19 20 21 22 23 24 25 25
30 29 28 27 26 24 22 20 19 18 16 14 13 13 11 10 9 7 6 6 5 5 5 6 6 8 9 10 10 11 12 14 16 17 18 19 21 22 23 24 25 25 26
31 30 29 28 27 25 23 22 20 19 17 15 14 13 12 11 10 8 7 7 6 5 5 6 7 7 8 10 11 12 13 15 16 17 19 20 22 23 24 25 26 26 27
32 31 31 29 28 27 25 23 21 20 18 16 15 14 13 12 11 9 9 8 7 6 6 6 7 8 9 10 11 12 14 15 17 18 20 21 23 24 25 26 27 27 28
33 33 32 31 29 28 26 24 23 21 19 17 16 15 14 13 12 11 10 9 8 6 6 7 8 9 10 11 12 13 14 16 17 19 21 22 23 25 26 27 27 28 28
35 34 33 32 31 29 28 26 24 22 20 18 17 16 15 14 13 11 10 9 8 7 7 8 9 10 11 12 13 14 15 16 18 20 21 23 24 26 27 27 28 29 29
36 35 34 33 32 31 29 28 26 23 21 20 19 18 16 15 13 12 11 10 9 9 9 9 10 11 12 13 14 15 16 17 19 21 22 23 25 26 27 28 29 29 30
36 35 34 33 32 31 30 29 27 24 23 21 20 19 17 16 14 13 12 11 10 10 10 10 11 12 13 13 14 15 17 18 20 21 23 24 26 27 28 29 30 30 31
36 36 35 34 33 32 31 30 28 26 24 23 22 20 19 17 16 14 13 12 11 11 11 12 12 13 13 14 15 16 18 19 21 22 23 25 26 27 28 29 30 31 32
38 37 36 34 33 32 32 30 28 27 26 25 23 22 20 19 17 16 14 13 13 13 12 13 13 14 14 15 16 17 19 20 22 23 24 25 27 28 29 30 31 32 33
39 38 37 35 34 33 32 31 29 28 27 26 25 23 22 20 19 17 16 14 14 14 13 14 14 14 15 16 17 18 20 21 23 24 25 26 28 29 30 31 32 33 34
40 39 38 37 35 34 33 32 30 29 29 28 27 25 23 22 20 18 17 16 15 15 14 15 15 16 16 17 18 19 21 22 24 25 26 27 29 30 31 32 33 34 34
41 40 39 38 36 35 34 33 32 31 30 29 28 27 25 23 21 20 18 17 16 16 16 16 16 16 17 18 19 20 22 23 24 25 26 28 29 31 32 33 34 34 35
42 41 40 39 38 36 35 34 33 32 31 30 29 28 26 24 23 21 20 19 18 17 17 17 17 18 18 19 20 21 23 24 25 26 27 29 30 32 33 34 34 35 36
43 42 41 40 39 38 36 35 34 33 32 31 30 29 27 25 24 23 21 20 19 19 18 18 18 18 19 20 21 22 23 25 26 27 29 30 31 33 34 34 35 36 37
44 44 42 41 40 39 38 36 35 34 33 32 31 30 28 27 25 24 23 22 21 20 20 20 20 20 20 21 22 23 24 26 27 28 30 31 32 34 34 35 36 37 38
46 45 44 42 41 40 39 37 36 34 33 32 31 31 29 28 27 25 24 23 23 22 21 21 21 21 21 22 23 24 25 27 28 29 31 32 34 35 35 36 37 39 40
47 46 45 43 42 40 39 38 36 35 34 33 32 32 30 29 28 27 26 25 24 24 23 23 22 22 23 23 24 25 26 28 29 30 32 33 35 36 37 38 39 40 41
49 47 46 45 43 41 40 39 38 37 35 35 34 33 31 30 29 28 27 26 26 25 25 24 24 24 24 25 26 27 28 29 30 32 33 35 36 37 38 39 40 41 42
49 47 46 45 44 42 41 40 39 38 36 35 34 33 32 31 30 29 28 27 27 26 26 26 25 26 26 27 27 28 29 30 31 33 34 36 37 38 39 40 41 42 43
50 48 47 46 45 44 42 41 39 37 36 34 34 34 33 32 31 30 29 29 28 28 27 27 27 27 28 28 28 29 31 32 33 34 35 37 38 39 40 41 42 43 44
51 49 48 47 46 45 44 42 40 39 37 36 36 35 34 33 32 31 30 30 29 29 29 28 28 29 29 29 30 30 31 33 34 36 36 38 39 40 40 41 42 43 44
52 51 49 48 47 46 45 43 41 39 39 38 37 36 35 34 33 32 32 31 31 30 30 30 30 30 30 30 31 32 33 34 36 37 38 39 40 40 41 42 43 44 45
Wind_Direction
230 230 230 230 229 227 226 226 227 229 231 231 236 242 249 254 261 270 280 289 301 313 323 328 329 332 334 333 334 335 336 337 338 338 336 335 334 332 330 328 327 326 324
231 231 231 231 229 227 227 228 230 231 231 233 238 244 251 254 255 259 267 277 290 304 318 322 323 327 328 330 332 333 335 336 338 337 336 335 334 333 332 330 328 326 325
231 231 231 230 229 228 228 229 231 232 233 235 239 244 249 251 250 254 259 268 282 298 310 313 318 322 325 328 330 332 334 336 337 337 336 335 335 333 332 330 328 326 325
229 229 229 229 229 228 228 229 230 232 234 238 241 244 245 245 245 247 252 262 276 291 302 309 315 321 323 327 330 332 334 335 336 336 336 335 335 333 332 330 329 327 325
228 228 228 228 227 227 228 229 229 231 234 238 240 241 239 239 240 242 247 256 270 283 295 304 313 318 323 327 329 330 332 333 335 335 335 335 334 333 332 331 330 328 327
227 227 226 226 226 226 226 227 228 230 233 236 238 235 234 235 235 239 243 251 262 275 288 298 308 316 322 326 327 328 330 332 333 334 334 334 334 333 333 332 330 329 328
226 225 225 225 225 225 225 225 226 228 231 234 234 231 231 231 233 238 242 246 256 269 282 294 302 311 319 322 323 324 328 330 331 333 333 334 334 333 332 331 331 330 329
224 224 224 224 224 224 224 223 225 227 229 231 230 229 228 229 233 238 242 243 251 264 279 291 299 306 312 317 318 322 325 327 330 332 332 333 333 333 332 332 331 330 329
224 223 223 224 223 223 223 222 224 226 228 229 227 227 226 229 233 237 240 241 248 261 277 288 296 302 307 312 316 320 323 326 328 330 330 331 332 332 333 333 332 330 330
223 222 223 223 222 222 221 222 223 226 227 226 225 225 226 229 231 235 238 241 249 262 274 284 293 299 304 309 314 318 321 324 326 328 329 330 331 331 332 332 331 330 329
222 222 222 222 221 221 221 221 223 224 225 225 224 223 224 227 230 235 238 242 250 263 273 282 291 297 302 307 312 316 319 322 324 326 327 328 329 330 330 330 330 329 328
221 221 221 221 221 220 220 220 222 223 223 223 222 222 224 227 231 235 239 244 253 264 273 281 289 295 300 306 310 314 317 320 323 324 325 327 328 329 329 329 329 328 327
220 220 220 220 220 219 219 220 221 222 222 222 222 223 225 228 232 236 241 246 255 264 272 280 288 293 299 304 308 312 316 319 321 322 324 326 327 328 328 328 328 327 326
218 219 220 219 219 219 219 220 221 221 221 221 222 224 226 230 233 237 241 248 257 265 272 280 287 292 296 302 307 311 315 317 319 321 322 324 326 326 327 327 326 326 325
218 218 219 219 219 219 219 220 221 221 221 222 223 224 227 231 234 238 242 249 258 265 273 281 287 291 295 300 305 309 313 316 318 319 321 322 324 325 325 325 325 325 324
217 218 219 219 219 219 219 220 221 221 221 222 224 225 228 231 234 238 243 250 257 265 273 282 286 290 293 299 304 308 312 315 316 318 319 321 322 323 323 323 324 324 324
217 218 219 218 218 219 220 221 221 221 222 223 224 226 228 232 235 239 245 251 257 265 272 280 286 289 292 297 302 306 310 313 315 316 318 319 321 322 322 322 322 322 322
217 217 218 218 218 218 219 220 221 222 223 223 225 226 229 232 236 241 246 251 257 265 272 279 285 290 292 296 300 304 308 311 314 315 316 318 319 320 321 321 321 321 321
217 217 217 217 218 218 219 220 221 222 223 224 225 227 230 233 237 242 247 251 257 265 272 278 284 288 292 295 299 303 307 310 313 314 315 316 318 319 319 319 319 319 319
217 217 217 217 218 218 219 219 220 222 224 225 226 228 231 234 238 243 248 251 257 264 271 277 282 287 291 294 298 302 305 308 311 313 314 315 316 317 318 318 318 318 318
217 217 218 218 218 219 219 219 221 222 224 225 227 229 232 235 239 244 248 252 257 264 270 275 280 285 289 293 296 300 304 307 309 311 313 314 315 315 316 317 317 317 317
218 217 218 218 219 219 219 220 221 223 224 226 228 230 233 236 240 245 249 252 258 264 269 274 278 283 287 291 295 299 303 305 307 309 311 313 314 314 314 315 315 316 316
217 218 219 219 219 219 219 221 222 223 225 227 229 231 234 237 241 245 249 253 258 264 268 273 277 281 286 290 293 298 302 304 306 308 310 311 312 313 313 314 314 315 316
216 218 220 220 219 219 220 221 223 224 226 227 230 232 235 238 242 246 250 254 258 263 268 272 276 280 284 288 291 295 299 303 305 307 309 310 311 312 312 313 313 315 316
217 218 219 220 220 220 221 221 222 224 225 227 230 233 236 239 242 246 250 254 258 263 267 271 275 279 282 286 290 294 298 302 304 306 308 309 310 311 312 313 313 314 315
217 218 219 220 221 221 221 221 222 224 226 229 231 234 237 241 244 246 250 254 258 262 266 270 274 278 281 284 289 293 297 300 303 305 306 308 309 310 311 312 313 313 315